Flag for Colombia Weather past 2 weeks in Bucaramanga, Colombia

Now
68 °F

Snow. Passing clouds.


Feels Like: 68 °F
Forecast: 69 / 76 °F
Wind: No wind

Location: Bucaramanga / Palonegro

Current Time: Oct 26, 2014 at 12:10:47 AM

Latest Report: Oct 25, 2014 at 11:00 PM


Visibility: N/A

Pressure: 30.02 "Hg

Humidity: 100%

Dew point: 68 °F

Location of BucaramangaLocation

Historic Weather in Bucaramanga — Graph

°F

Bucaramanga temperature yesterday

Maximum temperature yesterday: 77 °F (at 12:00 PM)
Minimum temperature yesterday: 68 °F (at 12:00 AM)
Average temperature yesterday: 72 °F

Past Weeks' High & Low Weather Summary

 TemperatureHumidityPressure
High81 °F (Oct 23, 12:00 PM)100% (Oct 11, 12:00 AM)30.10 "Hg (Oct 11, 12:00 AM)
Low64 °F (Oct 12, 5:30 AM)58% (Oct 14, 1:00 PM)29.88 "Hg (Oct 24, 4:00 PM)
Average71 °F85%30.00 "Hg
* Reported Oct 10 11:00 PM — Oct 25 11:00 PM, Bucaramanga, Weather by CustomWeather, © 2014

Note: Actual official high and low records may vary slightly from our data, if they occured in-between our weather recording intervals... More about our weather records

Advertising

Bucaramanga weather history for previous 24 hours

 ConditionsComfort  
Time TempWeatherWind HumidityBarometerVisibility
11:00 PM
Oct 25
68 °FSnow. Passing clouds.No wind100%30.02 "HgN/A
10:00 PM68 °FPassing clouds.2 mph100%30.03 "Hg3 mi
9:00 PM68 °FPassing clouds.3 mph94%30.03 "HgN/A
8:00 PM68 °FPassing clouds.5 mph100%30.00 "Hg4 mi
7:00 PM68 °FPassing clouds.3 mph100%29.98 "HgN/A
6:00 PM70 °FPassing clouds.5 mph94%29.95 "HgN/A
5:00 PM72 °FPartly sunny.6 mph88%29.94 "HgN/A
4:00 PM73 °FBroken clouds.9 mph83%29.93 "HgN/A
3:00 PM75 °FBroken clouds.9 mph78%29.94 "HgN/A
2:00 PM77 °FScattered clouds.12 mph69%29.95 "HgN/A
1:00 PM77 °FScattered clouds.6 mph69%29.98 "HgN/A
12:00 PM77 °FScattered clouds.5 mph69%30.03 "HgN/A
11:00 AM75 °FScattered clouds.5 mph74%30.04 "HgN/A
10:00 AM73 °FScattered clouds.6 mph78%30.08 "HgN/A
9:00 AM73 °FScattered clouds.5 mph78%30.07 "HgN/A
8:00 AM72 °FPartly sunny.2 mph83%30.03 "HgN/A
7:00 AM68 °FSnow. Scattered clouds.No wind94%30.01 "HgN/A
12:00 AM68 °FPassing clouds.No wind94%30.04 "HgN/A
Weather by CustomWeather, © 2014

See weather overviewHow to use our weather pages